Santa Monica, CA

1:59 AM PST on February 25, 2018 (GMT -0800)
Santa Monica Municipal

Weather History for KSMO - January, 2012

Change the Weather History Date:

Wednesday, January 25, 2012

  Actual Average Record
Temperature  
Mean Temperature 63 °F -  
Max Temperature 75 °F 67 °F 87 °F (1951)
Min Temperature 51 °F 47 °F 33 °F (1937)
Degree Days  
Heating Degree Days 2    
Growing Degree Days 13 (Base 50)    
Moisture  
Dew Point 40 °F    
Average Humidity 43    
Maximum Humidity 64    
Minimum Humidity 26    
Precipitation  
Precipitation 0.00 in - - ()
Sea Level Pressure  
Sea Level Pressure 30.15 in    
Wind  
Wind Speed 3 mph (ENE)    
Max Wind Speed 10 mph    
Max Gust Speed -    
Visibility 10 miles    
Events      
Averages and records for this station are not official NWS values.
T = Trace of Precipitation, MM = Missing Value Source: NWS Daily Summary

Daily Weather History Graph

Daily Weather History Graph

Search for Another Location

Airport or City:

Trip Planner

Search our weather history database for the weather conditions in past years. The results will help you decide how hot, cold, wet, or windy it might be!

Date:

Astronomy

Jan. 25, 2012 Rise Set
Actual Time 6:55 AM PST 5:17 PM PST
Civil Twilight 6:28 AM PST 5:43 PM PST
Nautical Twilight 5:58 AM PST 6:13 PM PST
Astronomical Twilight 5:28 AM PST 6:43 PM PST
Moon 8:06 AM PST 8:04 PM PST
Length of Visible Light 11h 14m
Length of Day
10h 21m
Waxing Crescent, 7% of the Moon is Illuminated
Jan 25
Waxing Crescent
Jan 30
First Quarter
Feb 7
Full
Feb 14
Last Quarter
Feb 21
New

Hourly Weather History & Observations

Time (PST) Temp. Dew Point Humidity Pressure Visibility Wind Dir Wind Speed Gust Speed Precip Events Conditions
12:51 AM 57.9 °F 33.1 °F 39% 30.22 in 10.0 mi East 3.5 mph - N/A   Clear
1:51 AM 57.0 °F 30.9 °F 37% 30.21 in 10.0 mi NNE 4.6 mph - N/A   Clear
2:51 AM 55.0 °F 34.0 °F 45% 30.21 in 10.0 mi SW 4.6 mph - N/A   Clear
3:51 AM 51.1 °F 37.9 °F 61% 30.20 in 10.0 mi NE 3.5 mph - N/A   Clear
5:51 AM 53.1 °F 37.0 °F 55% 30.19 in 10.0 mi Calm Calm - N/A   Clear
6:51 AM 52.0 °F 37.0 °F 57% 30.20 in 10.0 mi Calm Calm - N/A   Clear
7:51 AM 55.0 °F 37.9 °F 53% 30.21 in 10.0 mi Calm Calm - N/A   Clear
8:51 AM 62.1 °F 39.9 °F 44% 30.21 in 10.0 mi ENE 4.6 mph - N/A   Clear
9:51 AM 66.9 °F 37.9 °F 34% 30.22 in 10.0 mi Calm Calm - N/A   Clear
10:51 AM 73.0 °F 37.0 °F 27% 30.20 in 10.0 mi Calm Calm - N/A   Clear
11:51 AM 75.0 °F 39.0 °F 27% 30.17 in 10.0 mi SSW 6.9 mph - N/A   Clear
12:51 PM 73.0 °F 36.0 °F 26% 30.13 in 10.0 mi SSW 9.2 mph - N/A   Clear
1:51 PM 73.0 °F 39.9 °F 30% 30.10 in 10.0 mi SSW 10.4 mph - N/A   Clear
2:51 PM 72.0 °F 44.1 °F 37% 30.10 in 10.0 mi South 8.1 mph - N/A   Clear
3:51 PM 73.9 °F 45.0 °F 35% 30.09 in 10.0 mi Calm Calm - N/A   Clear
4:51 PM 73.9 °F 44.1 °F 34% 30.09 in 10.0 mi ESE 3.5 mph - N/A   Clear
5:51 PM 69.1 °F 48.0 °F 47% 30.10 in 10.0 mi North 3.5 mph - N/A   Clear
6:51 PM 66.9 °F 46.9 °F 49% 30.11 in 10.0 mi ENE 4.6 mph - N/A   Clear
7:51 PM 69.1 °F 42.1 °F 38% 30.11 in 10.0 mi ENE 3.5 mph - N/A   Clear
8:51 PM 62.1 °F 48.0 °F 60% 30.12 in 10.0 mi Calm Calm - N/A   Clear
9:51 PM 60.1 °F 48.0 °F 64% 30.13 in 10.0 mi Calm Calm - N/A   Clear
10:51 PM 62.1 °F 43.0 °F 50% 30.12 in 10.0 mi NNE 3.5 mph - N/A   Clear
11:51 PM 63.0 °F 39.9 °F 43% 30.11 in 10.0 mi NE 4.6 mph - N/A   Clear